Simultaneous Nadir Overpasses (SNOs) Predictions

Prediction of SNOs between GOES-15 and NPP Satellite Orbit:

Table of predicted SNOs for the next 14.0 days since TLE Epoch: 4/14/2012
Index Date Time (GOES-15) GOES-15 Lat,Lon NPP Lat,Lon Distance(km) Time Diff (sec)
1 04/15/2012 22:23:15 -0.06,-134.60 -0.02,-134.53 9.16 80
2 04/18/2012 10:23:37 0.06,-134.63 0.21,-135.26 71.98 80
3 04/19/2012 10:07:32 0.06,-134.67 -0.84,-130.74 448.54 80
4 04/20/2012 22:26:49 -0.05,-134.79 -0.31,-136.05 143.53 80
5 04/21/2012 22:10:43 -0.05,-134.82 0.67,-131.51 376.69 80
6 04/23/2012 10:29:51 0.04,-134.81 0.50,-136.78 225.89 80
7 04/24/2012 10:13:46 0.04,-134.84 -0.55,-132.26 293.79 80
8 04/25/2012 22:33:02 -0.03,-134.94 -0.60,-137.57 299.89 80
9 04/26/2012 22:16:57
